Location: *
(35.8942°N, 23.3025°E)
Time: 23:09:43
(UTC+00:00)

Cosmos 1515 Rocket - Pass Details

Date: 21 September 2021
Orbit: 606 x 629 km, 82.5° (Epoch: 22 October)

Event Time Altitude Azimuth Distance (km) Brightness Sun altitude
Exits shadow 02:46:22 14° 192° (SSW) 1,700 5.5 -18.4°
Maximum altitude 02:50:02 75° 277° (W) 634 3.4 -17.6°
Drops below altitude 10° 02:54:23 10° 3° (N) 1,963 6.3 -16.8°
Sets 02:56:36 0° 5° (N) 2,870 7.2 -16.3°
